TimeCDT,TemperatureF,Dew PointF,Humidity,Sea Level PressureIn,VisibilityMPH,Wind Direction,Wind SpeedMPH,Gust SpeedMPH,PrecipitationIn,Events,Conditions,WindDirDegrees,DateUTC
12:58 AM,29.7,24.1,80,30.22,10.0,NNW,10.4,-,N/A,,Clear,330,2013-03-25 05:58:00
1:58 AM,28.2,24.6,86,30.23,10.0,NW,11.5,-,N/A,,Partly Cloudy,320,2013-03-25 06:58:00
2:58 AM,27.0,18.7,71,30.25,10.0,NW,15.0,20.7,N/A,,Scattered Clouds,320,2013-03-25 07:58:00
3:58 AM,25.7,18.3,74,30.26,10.0,NNW,13.8,25.3,N/A,,Clear,330,2013-03-25 08:58:00
4:58 AM,24.8,18.7,78,30.26,10.0,NW,11.5,19.6,N/A,,Clear,310,2013-03-25 09:58:00
5:58 AM,24.4,19.2,81,30.27,10.0,NW,16.1,26.5,N/A,,Clear,320,2013-03-25 10:58:00
6:58 AM,24.1,18.9,80,30.27,10.0,NW,17.3,24.2,N/A,,Clear,320,2013-03-25 11:58:00
7:38 AM,24.8,19.4,80,30.23,10.0,NNW,19.6,27.6,N/A,,Mostly Cloudy,340,2013-03-25 12:38:00
7:58 AM,24.1,19.2,82,30.30,10.0,NNW,24.2,27.6,N/A,,Mostly Cloudy,330,2013-03-25 12:58:00
8:58 AM,25.0,20.3,82,30.33,10.0,NNW,15.0,27.6,N/A,,Mostly Cloudy,340,2013-03-25 13:58:00
9:03 AM,24.8,21.2,86,30.28,10.0,NNW,21.9,33.4,N/A,,Mostly Cloudy,330,2013-03-25 14:03:00
9:58 AM,26.1,20.7,80,30.34,10.0,North,19.6,26.5,N/A,,Mostly Cloudy,360,2013-03-25 14:58:00
10:13 AM,26.6,21.2,80,30.29,10.0,North,20.7,26.5,N/A,,Scattered Clouds,350,2013-03-25 15:13:00
10:58 AM,28.6,21.2,74,30.36,10.0,NNW,18.4,25.3,N/A,,Clear,340,2013-03-25 15:58:00
11:58 AM,30.7,20.7,66,30.36,10.0,NNW,20.7,-,N/A,,Scattered Clouds,330,2013-03-25 16:58:00
12:58 PM,32.0,20.3,62,30.37,10.0,North,18.4,24.2,N/A,,Scattered Clouds,350,2013-03-25 17:58:00
1:58 PM,32.7,18.0,55,30.36,10.0,NNW,17.3,29.9,N/A,,Mostly Cloudy,340,2013-03-25 18:58:00
2:04 PM,32.0,17.6,55,30.31,10.0,North,16.1,27.6,N/A,,Mostly Cloudy,350,2013-03-25 19:04:00
2:13 PM,32.0,17.6,55,30.31,10.0,NNW,15.0,-,N/A,,Mostly Cloudy,330,2013-03-25 19:13:00
2:58 PM,32.7,18.3,55,30.35,10.0,NW,18.4,-,0.00,,Mostly Cloudy,320,2013-03-25 19:58:00
3:58 PM,33.3,19.0,56,30.36,10.0,NNW,20.7,26.5,N/A,,Mostly Cloudy,340,2013-03-25 20:58:00
3:59 PM,32.0,19.4,60,30.30,10.0,NNW,18.4,26.5,N/A,Rain,Light Rain,340,2013-03-25 20:59:00
4:07 PM,32.0,19.4,60,30.30,10.0,NNW,17.3,26.5,N/A,,Mostly Cloudy,330,2013-03-25 21:07:00
4:58 PM,33.1,18.1,54,30.36,10.0,NNW,19.6,24.2,0.00,,Mostly Cloudy,330,2013-03-25 21:58:00
5:58 PM,33.1,17.2,52,30.37,10.0,North,16.1,21.9,N/A,,Mostly Cloudy,350,2013-03-25 22:58:00
6:46 PM,32.0,17.6,55,30.32,10.0,NNW,18.4,23.0,N/A,Rain,Light Rain,330,2013-03-25 23:46:00
6:54 PM,32.0,17.6,55,30.32,10.0,NNW,12.7,20.7,N/A,,Mostly Cloudy,330,2013-03-25 23:54:00
6:58 PM,32.4,17.6,55,30.38,10.0,NNW,18.4,25.3,0.00,,Mostly Cloudy,330,2013-03-25 23:58:00
7:58 PM,31.5,16.5,54,30.40,10.0,NNW,12.7,-,N/A,,Scattered Clouds,330,2013-03-26 00:58:00
8:58 PM,30.4,17.1,58,30.40,10.0,NW,11.5,-,N/A,,Clear,320,2013-03-26 01:58:00
9:58 PM,29.5,18.1,63,30.42,10.0,NNW,9.2,-,N/A,,Clear,340,2013-03-26 02:58:00
10:58 PM,28.6,19.4,69,30.43,10.0,North,8.1,-,N/A,,Clear,350,2013-03-26 03:58:00
11:58 PM,27.9,19.8,72,30.43,10.0,NNW,6.9,-,N/A,,Clear,340,2013-03-26 04:58:00